^^
Saratoga-Weather Station Historical Data
Daily Summary for August 6, 2021 Units:  Metric    English   Both
Daily Weekly Monthly Yearly Custom
  High: Low: Average:
Temperature: 7.7 °C 6.9 °C 7.3 °C
Dew Point: 7.3 °C 6.5 °C 6.9 °C
Humidity: 97% 97% 97%
Wind Speed: 4.7km/h 0km/h 0.6km/h
Wind Gust: 6.4km/h - -
Wind- - South
Pressure: 1009.5 hPa 1006.1 hPa -
Precipitation: 9.7 mm    
Historical Graphs
 
 
Tabular Data for August 6, 2021
Time Temperature Dew Point Pressure Wind Wind Speed Wind Gust Humidity Rainfall Rate (Hourly) solar
00:01 7.7 °C 7.3 °C 1009.5 hPa Calm     97% 3.3 mm 0 W/m2
00:06 7.7 °C 7.3 °C 1009.5 hPa Calm   1.6 km/h 97% 3.6 mm 0 W/m2
00:11 7.6 °C 7.2 °C 1009.5 hPa Calm     97% 3.8 mm 0 W/m2
00:16 7.6 °C 7.2 °C 1009.5 hPa Calm     97% 4.1 mm 0 W/m2
00:21 7.6 °C 7.2 °C 1009.5 hPa Calm     97% 4.1 mm 0 W/m2
00:26 7.6 °C 7.2 °C 1009.1 hPa Calm     97% 4.1 mm 0 W/m2
00:31 7.6 °C 7.2 °C 1009.1 hPa Calm     97% 3.8 mm 0 W/m2
00:36 7.6 °C 7.2 °C 1009.1 hPa Calm   1.6 km/h 97% 3.6 mm 0 W/m2
00:41 7.6 °C 7.2 °C 1009.1 hPa Calm   3.2 km/h 97% 3.3 mm 0 W/m2
00:46 7.5 °C 7.1 °C 1009.1 hPa East 1.4 km/h 3.2 km/h 97% 3.3 mm 0 W/m2
00:51 7.5 °C 7.1 °C 1009.1 hPa East 1.4 km/h 4.8 km/h 97% 3.0 mm 0 W/m2
00:56 7.5 °C 7.1 °C 1009.1 hPa East 4.7 km/h 4.8 km/h 97% 3.0 mm 0 W/m2
01:01 7.5 °C 7.1 °C 1009.1 hPa ESE 1.4 km/h 4.8 km/h 97% 2.8 mm 0 W/m2
01:06 7.5 °C 7.1 °C 1009.1 hPa Calm   1.6 km/h 97% 2.5 mm 0 W/m2
01:11 7.6 °C 7.2 °C 1008.8 hPa Calm   4.8 km/h 97% 2.5 mm 0 W/m2
01:16 7.5 °C 7.1 °C 1008.8 hPa Calm     97% 2.3 mm 0 W/m2
01:21 7.6 °C 7.2 °C 1008.8 hPa Calm   1.6 km/h 97% 2.0 mm 0 W/m2
01:26 7.5 °C 7.1 °C 1008.8 hPa Calm   3.2 km/h 97% 2.0 mm 0 W/m2
01:31 7.5 °C 7.1 °C 1008.8 hPa East 1.4 km/h 3.2 km/h 97% 1.8 mm 0 W/m2
01:36 7.5 °C 7.1 °C 1008.8 hPa ESE 1.4 km/h 1.6 km/h 97% 1.8 mm 0 W/m2
01:41 7.5 °C 7.1 °C 1008.8 hPa Calm   1.6 km/h 97% 1.8 mm 0 W/m2
01:46 7.4 °C 7 °C 1008.5 hPa Calm   1.6 km/h 97% 2.0 mm 0 W/m2
01:51 7.4 °C 7 °C 1008.8 hPa Calm     97% 2.0 mm 0 W/m2
01:56 7.4 °C 7 °C 1008.5 hPa Calm   3.2 km/h 97% 1.8 mm 0 W/m2
02:01 7.4 °C 7 °C 1008.5 hPa Calm     97% 1.8 mm 0 W/m2
02:06 7.4 °C 7 °C 1008.5 hPa East 1.4 km/h 1.6 km/h 97% 2.0 mm 0 W/m2
02:11 7.4 °C 7 °C 1008.5 hPa Calm   1.6 km/h 97% 2.0 mm 0 W/m2
02:16 7.4 °C 7 °C 1008.5 hPa Calm     97% 2.3 mm 0 W/m2
02:21 7.4 °C 7 °C 1008.5 hPa East 1.4 km/h 3.2 km/h 97% 2.3 mm 0 W/m2
02:26 7.4 °C 7 °C 1008.5 hPa Calm     97% 2.3 mm 0 W/m2
02:31 7.4 °C 7 °C 1008.5 hPa Calm     97% 2.0 mm 0 W/m2
02:36 7.3 °C 6.9 °C 1008.5 hPa ESE 1.4 km/h 4.8 km/h 97% 2.3 mm 0 W/m2
02:41 7.3 °C 6.9 °C 1008.5 hPa East 1.4 km/h 1.6 km/h 97% 2.3 mm 0 W/m2
02:46 7.3 °C 6.9 °C 1008.5 hPa Calm     97% 2.3 mm 0 W/m2
02:51 7.3 °C 6.9 °C 1008.5 hPa Calm   3.2 km/h 97% 2.3 mm 0 W/m2
02:56 7.3 °C 6.9 °C 1008.1 hPa NE 1.4 km/h 1.6 km/h 97% 2.0 mm 0 W/m2
03:01 7.3 °C 6.9 °C 1008.1 hPa ESE 1.4 km/h 3.2 km/h 97% 2.0 mm 0 W/m2
03:06 7.3 °C 6.9 °C 1008.1 hPa Calm   1.6 km/h 97% 1.8 mm 0 W/m2
03:11 7.2 °C 6.8 °C 1008.1 hPa Calm   1.6 km/h 97% 1.5 mm 0 W/m2
03:17 7.2 °C 6.8 °C 1008.1 hPa Calm     97% 1.5 mm 0 W/m2
03:22 7.2 °C 6.8 °C 1008.1 hPa Calm     97% 1.5 mm 0 W/m2
03:27 7.2 °C 6.8 °C 1008.1 hPa Calm     97% 1.5 mm 0 W/m2
03:32 7.2 °C 6.8 °C 1008.1 hPa Calm     97% 1.5 mm 0 W/m2
03:37 7.2 °C 6.8 °C 1008.1 hPa NW 4.7 km/h 4.8 km/h 97% 1.5 mm 0 W/m2
03:42 7.2 °C 6.8 °C 1008.1 hPa Calm     97% 1.5 mm 0 W/m2
03:47 7.2 °C 6.8 °C 1008.1 hPa Calm     97% 1.5 mm 0 W/m2
03:52 7.2 °C 6.8 °C 1007.8 hPa North 1.4 km/h 1.6 km/h 97% 1.5 mm 0 W/m2
03:57 7.3 °C 6.9 °C 1007.8 hPa Calm   1.6 km/h 97% 1.5 mm 0 W/m2
04:02 7.3 °C 6.9 °C 1007.8 hPa Calm   3.2 km/h 97% 1.5 mm 0 W/m2
04:07 7.2 °C 6.8 °C 1007.8 hPa Calm   1.6 km/h 97% 1.5 mm 0 W/m2
04:12 7.2 °C 6.8 °C 1007.8 hPa NNW 1.4 km/h 3.2 km/h 97% 1.5 mm 0 W/m2
04:17 7.2 °C 6.8 °C 1007.8 hPa NNW 1.4 km/h 6.4 km/h 97% 1.5 mm 0 W/m2
04:22 7.2 °C 6.8 °C 1007.5 hPa Calm   3.2 km/h 97% 1.5 mm 0 W/m2
04:27 7.2 °C 6.8 °C 1007.5 hPa NW 1.4 km/h 6.4 km/h 97% 1.3 mm 0 W/m2
04:32 7.2 °C 6.8 °C 1007.5 hPa Calm   4.8 km/h 97% 1.5 mm 0 W/m2
04:37 7.2 °C 6.8 °C 1007.5 hPa Calm   3.2 km/h 97% 1.5 mm 0 W/m2
04:42 7.2 °C 6.8 °C 1007.5 hPa Calm   3.2 km/h 97% 1.3 mm 0 W/m2
04:47 7.2 °C 6.8 °C 1007.5 hPa NE 1.4 km/h 4.8 km/h 97% 1.3 mm 0 W/m2
04:52 7.2 °C 6.8 °C 1007.1 hPa Calm   1.6 km/h 97% 1.0 mm 0 W/m2
04:57 7.2 °C 6.8 °C 1007.1 hPa Calm   4.8 km/h 97% 1.0 mm 0 W/m2
05:02 7.2 °C 6.8 °C 1007.1 hPa Calm     97% 1.0 mm 0 W/m2
05:07 7.1 °C 6.7 °C 1007.1 hPa Calm   1.6 km/h 97% 0.8 mm 0 W/m2
05:12 7.1 °C 6.7 °C 1006.8 hPa Calm     97% 0.8 mm 0 W/m2
05:17 7.1 °C 6.7 °C 1006.8 hPa Calm   3.2 km/h 97% 1.0 mm 0 W/m2
05:22 7.1 °C 6.7 °C 1006.8 hPa Calm   1.6 km/h 97% 1.0 mm 0 W/m2
05:27 7.1 °C 6.7 °C 1006.8 hPa Calm     97% 1.0 mm 0 W/m2
05:32 7.1 °C 6.7 °C 1006.8 hPa Calm   4.8 km/h 97% 0.8 mm 0 W/m2
05:37 7.1 °C 6.7 °C 1006.8 hPa North 3.2 km/h 3.2 km/h 97% 0.5 mm 0 W/m2
05:42 7.1 °C 6.7 °C 1006.8 hPa North 1.4 km/h 1.6 km/h 97% 0.5 mm 0 W/m2
05:47 7.1 °C 6.7 °C 1006.4 hPa Calm   3.2 km/h 97% 0.5 mm 0 W/m2
05:52 7.1 °C 6.7 °C 1006.4 hPa Calm   1.6 km/h 97% 0.5 mm 0 W/m2
05:57 7 °C 6.6 °C 1006.4 hPa ESE 1.4 km/h 3.2 km/h 97% 0.5 mm 0 W/m2
06:02 7 °C 6.6 °C 1006.4 hPa ENE 4.7 km/h 4.8 km/h 97% 0.5 mm 0 W/m2
06:07 7 °C 6.6 °C 1006.4 hPa NE 1.4 km/h 3.2 km/h 97% 0.5 mm 0 W/m2
06:12 7 °C 6.6 °C 1006.4 hPa Calm   3.2 km/h 97% 0.5 mm 0 W/m2
06:17 7 °C 6.6 °C 1006.4 hPa Calm   3.2 km/h 97% 0.2 mm 0 W/m2
06:22 6.9 °C 6.5 °C 1006.4 hPa Calm     97% 0.2 mm 0 W/m2
06:27 6.9 °C 6.5 °C 1006.4 hPa Calm   3.2 km/h 97% 0.2 mm 0 W/m2
06:32 7 °C 6.6 °C 1006.1 hPa WNW 3.2 km/h 3.2 km/h 97% 0.2 mm 0 W/m2
06:37 6.9 °C 6.5 °C 1006.1 hPa Calm   3.2 km/h 97% 0.2 mm 0 W/m2
06:42 6.9 °C 6.5 °C 1006.1 hPa Calm   3.2 km/h 97% 0.2 mm 0 W/m2
06:47 6.9 °C 6.5 °C 1006.1 hPa Calm   1.6 km/h 97% 0.2 mm 0 W/m2
06:52 6.9 °C 6.5 °C 1006.1 hPa Calm     97% 0.2 mm 0 W/m2
06:57 6.9 °C 6.5 °C 1006.1 hPa NW 1.4 km/h 1.6 km/h 97% 0.2 mm 0 W/m2
07:02 6.9 °C 6.5 °C 1006.1 hPa Calm   1.6 km/h 97% 0.2 mm 0 W/m2
Juneau County Weather
Compliments of Weather Underground - 4 mb